Data supplied by UK-AIR on 22/3/2017
All Data GMT hour ending 
Status: R =Ratified P=Provisional,P*=As supplied
,,London Teddington Bushy Park,,,,,,,,,,,,,,,,,,,,,,,
Date,time,"Non-volatile PM<sub>2.5</sub> (Hourly measured)",status,unit,"PM<sub>2.5</sub> particulate matter (Hourly measured)",status,unit,"Volatile PM<sub>2.5</sub> (Hourly measured)",status,unit
 
01-01-2016,01:00,5.400,R,ugm-3 (TEOM FDMS),4.300,R,ugm-3 (TEOM FDMS),-1.100,R,ugm-3 (TEOM FDMS)
01-01-2016,02:00,17.200,R,ugm-3 (TEOM FDMS),14.800,R,ugm-3 (TEOM FDMS),-2.400,R,ugm-3 (TEOM FDMS)
01-01-2016,03:00,10.900,R,ugm-3 (TEOM FDMS),9.600,R,ugm-3 (TEOM FDMS),-1.300,R,ugm-3 (TEOM FDMS)
01-01-2016,04:00,12.900,R,ugm-3 (TEOM FDMS),14.500,R,ugm-3 (TEOM FDMS),1.600,R,ugm-3 (TEOM FDMS)
01-01-2016,05:00,12.100,R,ugm-3 (TEOM FDMS),12.400,R,ugm-3 (TEOM FDMS),0.300,R,ugm-3 (TEOM FDMS)
01-01-2016,06:00,5.000,R,ugm-3 (TEOM FDMS),6.900,R,ugm-3 (TEOM FDMS),1.900,R,ugm-3 (TEOM FDMS)
01-01-2016,07:00,6.100,R,ugm-3 (TEOM FDMS),5.200,R,ugm-3 (TEOM FDMS),-0.900,R,ugm-3 (TEOM FDMS)
01-01-2016,08:00,5.300,R,ugm-3 (TEOM FDMS),7.000,R,ugm-3 (TEOM FDMS),1.700,R,ugm-3 (TEOM FDMS)
01-01-2016,09:00,2.400,R,ugm-3 (TEOM FDMS),2.000,R,ugm-3 (TEOM FDMS),-0.400,R,ugm-3 (TEOM FDMS)
01-01-2016,10:00,-0.100,R,ugm-3 (TEOM FDMS),-0.300,R,ugm-3 (TEOM FDMS),-0.200,R,ugm-3 (TEOM FDMS)
01-01-2016,11:00,0.900,R,ugm-3 (TEOM FDMS),1.100,R,ugm-3 (TEOM FDMS),0.200,R,ugm-3 (TEOM FDMS)
01-01-2016,12:00,2.000,R,ugm-3 (TEOM FDMS),5.300,R,ugm-3 (TEOM FDMS),3.300,R,ugm-3 (TEOM FDMS)
01-01-2016,13:00,0.800,R,ugm-3 (TEOM FDMS),2.100,R,ugm-3 (TEOM FDMS),1.300,R,ugm-3 (TEOM FDMS)
01-01-2016,14:00,2.600,R,ugm-3 (TEOM FDMS),5.100,R,ugm-3 (TEOM FDMS),2.500,R,ugm-3 (TEOM FDMS)
01-01-2016,15:00,3.500,R,ugm-3 (TEOM FDMS),4.800,R,ugm-3 (TEOM FDMS),1.300,R,ugm-3 (TEOM FDMS)
01-01-2016,16:00,4.000,R,ugm-3 (TEOM FDMS),3.900,R,ugm-3 (TEOM FDMS),-0.100,R,ugm-3 (TEOM FDMS)
01-01-2016,17:00,3.800,R,ugm-3 (TEOM FDMS),10.200,R,ugm-3 (TEOM FDMS),6.400,R,ugm-3 (TEOM FDMS)
01-01-2016,18:00,3.300,R,ugm-3 (TEOM FDMS),6.700,R,ugm-3 (TEOM FDMS),3.400,R,ugm-3 (TEOM FDMS)
01-01-2016,19:00,3.200,R,ugm-3 (TEOM FDMS),6.600,R,ugm-3 (TEOM FDMS),3.400,R,ugm-3 (TEOM FDMS)
01-01-2016,20:00,2.000,R,ugm-3 (TEOM FDMS),5.400,R,ugm-3 (TEOM FDMS),3.400,R,ugm-3 (TEOM FDMS)
01-01-2016,21:00,1.200,R,ugm-3 (TEOM FDMS),2.300,R,ugm-3 (TEOM FDMS),1.100,R,ugm-3 (TEOM FDMS)
01-01-2016,22:00,2.600,R,ugm-3 (TEOM FDMS),3.700,R,ugm-3 (TEOM FDMS),1.100,R,ugm-3 (TEOM FDMS)
01-01-2016,23:00,2.700,R,ugm-3 (TEOM FDMS),5.700,R,ugm-3 (TEOM FDMS),3.000,R,ugm-3 (TEOM FDMS)
01-01-2016,24:00,1.100,R,ugm-3 (TEOM FDMS),3.800,R,ugm-3 (TEOM FDMS),2.700,R,ugm-3 (TEOM FDMS)
02-01-2016,01:00,0.700,R,ugm-3 (TEOM FDMS),3.700,R,ugm-3 (TEOM FDMS),3.000,R,ugm-3 (TEOM FDMS)
02-01-2016,02:00,0.900,R,ugm-3 (TEOM FDMS),4.200,R,ugm-3 (TEOM FDMS),3.300,R,ugm-3 (TEOM FDMS)
02-01-2016,03:00,1.500,R,ugm-3 (TEOM FDMS),3.400,R,ugm-3 (TEOM FDMS),1.900,R,ugm-3 (TEOM FDMS)
02-01-2016,04:00,3.500,R,ugm-3 (TEOM FDMS),7.300,R,ugm-3 (TEOM FDMS),3.800,R,ugm-3 (TEOM FDMS)
02-01-2016,05:00,2.400,R,ugm-3 (TEOM FDMS),3.500,R,ugm-3 (TEOM FDMS),1.100,R,ugm-3 (TEOM FDMS)
02-01-2016,06:00,1.800,R,ugm-3 (TEOM FDMS),2.300,R,ugm-3 (TEOM FDMS),0.500,R,ugm-3 (TEOM FDMS)
02-01-2016,07:00,0.600,R,ugm-3 (TEOM FDMS),0.000,R,ugm-3 (TEOM FDMS),-0.600,R,ugm-3 (TEOM FDMS)
02-01-2016,08:00,2.400,R,ugm-3 (TEOM FDMS),3.800,R,ugm-3 (TEOM FDMS),1.400,R,ugm-3 (TEOM FDMS)
02-01-2016,09:00,1.900,R,ugm-3 (TEOM FDMS),1.500,R,ugm-3 (TEOM FDMS),-0.400,R,ugm-3 (TEOM FDMS)
02-01-2016,10:00,0.300,R,ugm-3 (TEOM FDMS),2.700,R,ugm-3 (TEOM FDMS),2.400,R,ugm-3 (TEOM FDMS)
02-01-2016,11:00,-1.800,R,ugm-3 (TEOM FDMS),0.600,R,ugm-3 (TEOM FDMS),2.400,R,ugm-3 (TEOM FDMS)
02-01-2016,12:00,-1.800,R,ugm-3 (TEOM FDMS),-0.500,R,ugm-3 (TEOM FDMS),1.300,R,ugm-3 (TEOM FDMS)
02-01-2016,13:00,-3.400,R,ugm-3 (TEOM FDMS),-0.100,R,ugm-3 (TEOM FDMS),3.300,R,ugm-3 (TEOM FDMS)
02-01-2016,14:00,-1.100,R,ugm-3 (TEOM FDMS),-0.500,R,ugm-3 (TEOM FDMS),0.600,R,ugm-3 (TEOM FDMS)
02-01-2016,15:00,-1.100,R,ugm-3 (TEOM FDMS),0.000,R,ugm-3 (TEOM FDMS),1.100,R,ugm-3 (TEOM FDMS)
02-01-2016,16:00,0.500,R,ugm-3 (TEOM FDMS),0.200,R,ugm-3 (TEOM FDMS),-0.300,R,ugm-3 (TEOM FDMS)
02-01-2016,17:00,-0.500,R,ugm-3 (TEOM FDMS),2.100,R,ugm-3 (TEOM FDMS),2.600,R,ugm-3 (TEOM FDMS)
02-01-2016,18:00,2.100,R,ugm-3 (TEOM FDMS),1.500,R,ugm-3 (TEOM FDMS),-0.600,R,ugm-3 (TEOM FDMS)
02-01-2016,19:00,1.800,R,ugm-3 (TEOM FDMS),1.400,R,ugm-3 (TEOM FDMS),-0.400,R,ugm-3 (TEOM FDMS)
02-01-2016,20:00,1.200,R,ugm-3 (TEOM FDMS),0.700,R,ugm-3 (TEOM FDMS),-0.500,R,ugm-3 (TEOM FDMS)
02-01-2016,21:00,-0.100,R,ugm-3 (TEOM FDMS),0.000,R,ugm-3 (TEOM FDMS),0.100,R,ugm-3 (TEOM FDMS)
02-01-2016,22:00,2.800,R,ugm-3 (TEOM FDMS),2.600,R,ugm-3 (TEOM FDMS),-0.200,R,ugm-3 (TEOM FDMS)
02-01-2016,23:00,1.600,R,ugm-3 (TEOM FDMS),1.400,R,ugm-3 (TEOM FDMS),-0.200,R,ugm-3 (TEOM FDMS)
02-01-2016,24:00,2.300,R,ugm-3 (TEOM FDMS),1.700,R,ugm-3 (TEOM FDMS),-0.600,R,ugm-3 (TEOM FDMS)
03-01-2016,01:00,-0.600,R,ugm-3 (TEOM FDMS),0.400,R,ugm-3 (TEOM FDMS),1.000,R,ugm-3 (TEOM FDMS)
03-01-2016,02:00,-0.700,R,ugm-3 (TEOM FDMS),0.900,R,ugm-3 (TEOM FDMS),1.600,R,ugm-3 (TEOM FDMS)
03-01-2016,03:00,-1.100,R,ugm-3 (TEOM FDMS),-2.600,R,ugm-3 (TEOM FDMS),-1.500,R,ugm-3 (TEOM FDMS)
03-01-2016,04:00,-0.700,R,ugm-3 (TEOM FDMS),3.300,R,ugm-3 (TEOM FDMS),4.000,R,ugm-3 (TEOM FDMS)
03-01-2016,05:00,-1.400,R,ugm-3 (TEOM FDMS),1.700,R,ugm-3 (TEOM FDMS),3.100,R,ugm-3 (TEOM FDMS)
03-01-2016,06:00,-3.900,R,ugm-3 (TEOM FDMS),-0.600,R,ugm-3 (TEOM FDMS),3.300,R,ugm-3 (TEOM FDMS)
03-01-2016,07:00,-3.900,R,ugm-3 (TEOM FDMS),-1.600,R,ugm-3 (TEOM FDMS),2.300,R,ugm-3 (TEOM FDMS)
03-01-2016,08:00,-2.900,R,ugm-3 (TEOM FDMS),0.600,R,ugm-3 (TEOM FDMS),3.500,R,ugm-3 (TEOM FDMS)
03-01-2016,09:00,0.100,R,ugm-3 (TEOM FDMS),3.700,R,ugm-3 (TEOM FDMS),3.600,R,ugm-3 (TEOM FDMS)
03-01-2016,10:00,-1.900,R,ugm-3 (TEOM FDMS),-0.200,R,ugm-3 (TEOM FDMS),1.700,R,ugm-3 (TEOM FDMS)
03-01-2016,11:00,-2.500,R,ugm-3 (TEOM FDMS),3.100,R,ugm-3 (TEOM FDMS),5.600,R,ugm-3 (TEOM FDMS)
03-01-2016,12:00,,,,,,,,,
03-01-2016,13:00,,,,,,,,,
03-01-2016,14:00,-3.800,R,ugm-3 (TEOM FDMS),0.900,R,ugm-3 (TEOM FDMS),4.700,R,ugm-3 (TEOM FDMS)
03-01-2016,15:00,1.100,R,ugm-3 (TEOM FDMS),3.400,R,ugm-3 (TEOM FDMS),2.300,R,ugm-3 (TEOM FDMS)
03-01-2016,16:00,-1.000,R,ugm-3 (TEOM FDMS),-1.700,R,ugm-3 (TEOM FDMS),-0.700,R,ugm-3 (TEOM FDMS)
03-01-2016,17:00,1.000,R,ugm-3 (TEOM FDMS),2.300,R,ugm-3 (TEOM FDMS),1.300,R,ugm-3 (TEOM FDMS)
03-01-2016,18:00,1.100,R,ugm-3 (TEOM FDMS),5.500,R,ugm-3 (TEOM FDMS),4.400,R,ugm-3 (TEOM FDMS)
03-01-2016,19:00,3.600,R,ugm-3 (TEOM FDMS),4.800,R,ugm-3 (TEOM FDMS),1.200,R,ugm-3 (TEOM FDMS)
03-01-2016,20:00,5.100,R,ugm-3 (TEOM FDMS),5.200,R,ugm-3 (TEOM FDMS),0.100,R,ugm-3 (TEOM FDMS)
03-01-2016,21:00,5.100,R,ugm-3 (TEOM FDMS),6.000,R,ugm-3 (TEOM FDMS),0.900,R,ugm-3 (TEOM FDMS)
03-01-2016,22:00,4.600,R,ugm-3 (TEOM FDMS),5.700,R,ugm-3 (TEOM FDMS),1.100,R,ugm-3 (TEOM FDMS)
03-01-2016,23:00,,,,,,,,,
03-01-2016,24:00,1.800,R,ugm-3 (TEOM FDMS),1.400,R,ugm-3 (TEOM FDMS),-0.400,R,ugm-3 (TEOM FDMS)
04-01-2016,01:00,1.500,R,ugm-3 (TEOM FDMS),2.800,R,ugm-3 (TEOM FDMS),1.300,R,ugm-3 (TEOM FDMS)
04-01-2016,02:00,0.900,R,ugm-3 (TEOM FDMS),1.500,R,ugm-3 (TEOM FDMS),0.600,R,ugm-3 (TEOM FDMS)
04-01-2016,03:00,-1.200,R,ugm-3 (TEOM FDMS),1.200,R,ugm-3 (TEOM FDMS),2.400,R,ugm-3 (TEOM FDMS)
04-01-2016,04:00,-0.700,R,ugm-3 (TEOM FDMS),-1.200,R,ugm-3 (TEOM FDMS),-0.500,R,ugm-3 (TEOM FDMS)
04-01-2016,05:00,-3.400,R,ugm-3 (TEOM FDMS),-3.800,R,ugm-3 (TEOM FDMS),-0.400,R,ugm-3 (TEOM FDMS)
04-01-2016,06:00,-1.900,R,ugm-3 (TEOM FDMS),-1.600,R,ugm-3 (TEOM FDMS),0.300,R,ugm-3 (TEOM FDMS)
04-01-2016,07:00,0.400,R,ugm-3 (TEOM FDMS),0.900,R,ugm-3 (TEOM FDMS),0.500,R,ugm-3 (TEOM FDMS)
04-01-2016,08:00,-2.100,R,ugm-3 (TEOM FDMS),-0.800,R,ugm-3 (TEOM FDMS),1.300,R,ugm-3 (TEOM FDMS)
04-01-2016,09:00,1.500,R,ugm-3 (TEOM FDMS),0.800,R,ugm-3 (TEOM FDMS),-0.700,R,ugm-3 (TEOM FDMS)
04-01-2016,10:00,-1.100,R,ugm-3 (TEOM FDMS),1.600,R,ugm-3 (TEOM FDMS),2.700,R,ugm-3 (TEOM FDMS)
04-01-2016,11:00,2.400,R,ugm-3 (TEOM FDMS),0.200,R,ugm-3 (TEOM FDMS),-2.200,R,ugm-3 (TEOM FDMS)
04-01-2016,12:00,0.400,R,ugm-3 (TEOM FDMS),1.500,R,ugm-3 (TEOM FDMS),1.100,R,ugm-3 (TEOM FDMS)
04-01-2016,13:00,1.300,R,ugm-3 (TEOM FDMS),-0.600,R,ugm-3 (TEOM FDMS),-1.900,R,ugm-3 (TEOM FDMS)
04-01-2016,14:00,1.800,R,ugm-3 (TEOM FDMS),2.900,R,ugm-3 (TEOM FDMS),1.100,R,ugm-3 (TEOM FDMS)
04-01-2016,15:00,2.500,R,ugm-3 (TEOM FDMS),2.200,R,ugm-3 (TEOM FDMS),-0.300,R,ugm-3 (TEOM FDMS)
04-01-2016,16:00,1.200,R,ugm-3 (TEOM FDMS),4.000,R,ugm-3 (TEOM FDMS),2.800,R,ugm-3 (TEOM FDMS)
04-01-2016,17:00,2.600,R,ugm-3 (TEOM FDMS),4.000,R,ugm-3 (TEOM FDMS),1.400,R,ugm-3 (TEOM FDMS)
04-01-2016,18:00,2.800,R,ugm-3 (TEOM FDMS),2.900,R,ugm-3 (TEOM FDMS),0.100,R,ugm-3 (TEOM FDMS)
04-01-2016,19:00,1.800,R,ugm-3 (TEOM FDMS),1.700,R,ugm-3 (TEOM FDMS),-0.100,R,ugm-3 (TEOM FDMS)
04-01-2016,20:00,1.600,R,ugm-3 (TEOM FDMS),0.500,R,ugm-3 (TEOM FDMS),-1.100,R,ugm-3 (TEOM FDMS)
04-01-2016,21:00,2.100,R,ugm-3 (TEOM FDMS),0.100,R,ugm-3 (TEOM FDMS),-2.000,R,ugm-3 (TEOM FDMS)
04-01-2016,22:00,0.900,R,ugm-3 (TEOM FDMS),0.300,R,ugm-3 (TEOM FDMS),-0.600,R,ugm-3 (TEOM FDMS)
04-01-2016,23:00,0.400,R,ugm-3 (TEOM FDMS),3.000,R,ugm-3 (TEOM FDMS),2.600,R,ugm-3 (TEOM FDMS)
04-01-2016,24:00,1.600,R,ugm-3 (TEOM FDMS),1.000,R,ugm-3 (TEOM FDMS),-0.600,R,ugm-3 (TEOM FDMS)
05-01-2016,01:00,0.100,R,ugm-3 (TEOM FDMS),1.700,R,ugm-3 (TEOM FDMS),1.600,R,ugm-3 (TEOM FDMS)
05-01-2016,02:00,-1.000,R,ugm-3 (TEOM FDMS),0.000,R,ugm-3 (TEOM FDMS),1.000,R,ugm-3 (TEOM FDMS)
05-01-2016,03:00,0.400,R,ugm-3 (TEOM FDMS),0.400,R,ugm-3 (TEOM FDMS),0.000,R,ugm-3 (TEOM FDMS)
05-01-2016,04:00,-2.000,R,ugm-3 (TEOM FDMS),1.100,R,ugm-3 (TEOM FDMS),3.100,R,ugm-3 (TEOM FDMS)
05-01-2016,05:00,-1.900,R,ugm-3 (TEOM FDMS),-0.100,R,ugm-3 (TEOM FDMS),1.800,R,ugm-3 (TEOM FDMS)
05-01-2016,06:00,-1.500,R,ugm-3 (TEOM FDMS),-0.600,R,ugm-3 (TEOM FDMS),0.900,R,ugm-3 (TEOM FDMS)
05-01-2016,07:00,-1.000,R,ugm-3 (TEOM FDMS),-2.300,R,ugm-3 (TEOM FDMS),-1.300,R,ugm-3 (TEOM FDMS)
05-01-2016,08:00,0.300,R,ugm-3 (TEOM FDMS),1.500,R,ugm-3 (TEOM FDMS),1.200,R,ugm-3 (TEOM FDMS)
05-01-2016,09:00,1.200,R,ugm-3 (TEOM FDMS),1.200,R,ugm-3 (TEOM FDMS),0.000,R,ugm-3 (TEOM FDMS)
05-01-2016,10:00,4.100,R,ugm-3 (TEOM FDMS),0.900,R,ugm-3 (TEOM FDMS),-3.200,R,ugm-3 (TEOM FDMS)
05-01-2016,11:00,4.400,R,ugm-3 (TEOM FDMS),2.200,R,ugm-3 (TEOM FDMS),-2.200,R,ugm-3 (TEOM FDMS)
05-01-2016,12:00,2.800,R,ugm-3 (TEOM FDMS),3.300,R,ugm-3 (TEOM FDMS),0.500,R,ugm-3 (TEOM FDMS)
05-01-2016,13:00,4.100,R,ugm-3 (TEOM FDMS),2.300,R,ugm-3 (TEOM FDMS),-1.800,R,ugm-3 (TEOM FDMS)
05-01-2016,14:00,4.800,R,ugm-3 (TEOM FDMS),3.100,R,ugm-3 (TEOM FDMS),-1.700,R,ugm-3 (TEOM FDMS)
05-01-2016,15:00,5.000,R,ugm-3 (TEOM FDMS),6.100,R,ugm-3 (TEOM FDMS),1.100,R,ugm-3 (TEOM FDMS)
05-01-2016,16:00,5.700,R,ugm-3 (TEOM FDMS),7.000,R,ugm-3 (TEOM FDMS),1.300,R,ugm-3 (TEOM FDMS)
05-01-2016,17:00,12.700,R,ugm-3 (TEOM FDMS),11.400,R,ugm-3 (TEOM FDMS),-1.300,R,ugm-3 (TEOM FDMS)
05-01-2016,18:00,13.900,R,ugm-3 (TEOM FDMS),14.000,R,ugm-3 (TEOM FDMS),0.100,R,ugm-3 (TEOM FDMS)
05-01-2016,19:00,8.000,R,ugm-3 (TEOM FDMS),9.100,R,ugm-3 (TEOM FDMS),1.100,R,ugm-3 (TEOM FDMS)
05-01-2016,20:00,8.600,R,ugm-3 (TEOM FDMS),9.800,R,ugm-3 (TEOM FDMS),1.200,R,ugm-3 (TEOM FDMS)
05-01-2016,21:00,9.000,R,ugm-3 (TEOM FDMS),8.500,R,ugm-3 (TEOM FDMS),-0.500,R,ugm-3 (TEOM FDMS)
05-01-2016,22:00,11.000,R,ugm-3 (TEOM FDMS),10.400,R,ugm-3 (TEOM FDMS),-0.600,R,ugm-3 (TEOM FDMS)
05-01-2016,23:00,11.100,R,ugm-3 (TEOM FDMS),11.200,R,ugm-3 (TEOM FDMS),0.100,R,ugm-3 (TEOM FDMS)
05-01-2016,24:00,11.300,R,ugm-3 (TEOM FDMS),11.500,R,ugm-3 (TEOM FDMS),0.200,R,ugm-3 (TEOM FDMS)
06-01-2016,01:00,11.900,R,ugm-3 (TEOM FDMS),11.600,R,ugm-3 (TEOM FDMS),-0.300,R,ugm-3 (TEOM FDMS)
06-01-2016,02:00,12.200,R,ugm-3 (TEOM FDMS),15.900,R,ugm-3 (TEOM FDMS),3.700,R,ugm-3 (TEOM FDMS)
06-01-2016,03:00,9.500,R,ugm-3 (TEOM FDMS),8.900,R,ugm-3 (TEOM FDMS),-0.600,R,ugm-3 (TEOM FDMS)
06-01-2016,04:00,7.400,R,ugm-3 (TEOM FDMS),6.700,R,ugm-3 (TEOM FDMS),-0.700,R,ugm-3 (TEOM FDMS)
06-01-2016,05:00,5.200,R,ugm-3 (TEOM FDMS),4.600,R,ugm-3 (TEOM FDMS),-0.600,R,ugm-3 (TEOM FDMS)
06-01-2016,06:00,7.300,R,ugm-3 (TEOM FDMS),9.000,R,ugm-3 (TEOM FDMS),1.700,R,ugm-3 (TEOM FDMS)
06-01-2016,07:00,9.600,R,ugm-3 (TEOM FDMS),8.300,R,ugm-3 (TEOM FDMS),-1.300,R,ugm-3 (TEOM FDMS)
06-01-2016,08:00,9.100,R,ugm-3 (TEOM FDMS),9.100,R,ugm-3 (TEOM FDMS),0.000,R,ugm-3 (TEOM FDMS)
06-01-2016,09:00,14.000,R,ugm-3 (TEOM FDMS),14.400,R,ugm-3 (TEOM FDMS),0.400,R,ugm-3 (TEOM FDMS)
06-01-2016,10:00,21.500,R,ugm-3 (TEOM FDMS),23.600,R,ugm-3 (TEOM FDMS),2.100,R,ugm-3 (TEOM FDMS)
06-01-2016,11:00,24.400,R,ugm-3 (TEOM FDMS),24.000,R,ugm-3 (TEOM FDMS),-0.400,R,ugm-3 (TEOM FDMS)
06-01-2016,12:00,20.600,R,ugm-3 (TEOM FDMS),25.700,R,ugm-3 (TEOM FDMS),5.100,R,ugm-3 (TEOM FDMS)
06-01-2016,13:00,19.400,R,ugm-3 (TEOM FDMS),22.900,R,ugm-3 (TEOM FDMS),3.500,R,ugm-3 (TEOM FDMS)
06-01-2016,14:00,17.700,R,ugm-3 (TEOM FDMS),21.200,R,ugm-3 (TEOM FDMS),3.500,R,ugm-3 (TEOM FDMS)
06-01-2016,15:00,18.900,R,ugm-3 (TEOM FDMS),19.700,R,ugm-3 (TEOM FDMS),0.800,R,ugm-3 (TEOM FDMS)
06-01-2016,16:00,16.300,R,ugm-3 (TEOM FDMS),19.000,R,ugm-3 (TEOM FDMS),2.700,R,ugm-3 (TEOM FDMS)
06-01-2016,17:00,14.900,R,ugm-3 (TEOM FDMS),17.500,R,ugm-3 (TEOM FDMS),2.600,R,ugm-3 (TEOM FDMS)
06-01-2016,18:00,16.700,R,ugm-3 (TEOM FDMS),20.400,R,ugm-3 (TEOM FDMS),3.700,R,ugm-3 (TEOM FDMS)
06-01-2016,19:00,17.000,R,ugm-3 (TEOM FDMS),22.600,R,ugm-3 (TEOM FDMS),5.600,R,ugm-3 (TEOM FDMS)
06-01-2016,20:00,17.300,R,ugm-3 (TEOM FDMS),21.500,R,ugm-3 (TEOM FDMS),4.200,R,ugm-3 (TEOM FDMS)
06-01-2016,21:00,19.100,R,ugm-3 (TEOM FDMS),24.100,R,ugm-3 (TEOM FDMS),5.000,R,ugm-3 (TEOM FDMS)
06-01-2016,22:00,12.600,R,ugm-3 (TEOM FDMS),16.800,R,ugm-3 (TEOM FDMS),4.200,R,ugm-3 (TEOM FDMS)
06-01-2016,23:00,14.700,R,ugm-3 (TEOM FDMS),19.600,R,ugm-3 (TEOM FDMS),4.900,R,ugm-3 (TEOM FDMS)
06-01-2016,24:00,7.900,R,ugm-3 (TEOM FDMS),14.300,R,ugm-3 (TEOM FDMS),6.400,R,ugm-3 (TEOM FDMS)
07-01-2016,01:00,1.800,R,ugm-3 (TEOM FDMS),8.100,R,ugm-3 (TEOM FDMS),6.300,R,ugm-3 (TEOM FDMS)
07-01-2016,02:00,-0.500,R,ugm-3 (TEOM FDMS),4.100,R,ugm-3 (TEOM FDMS),4.600,R,ugm-3 (TEOM FDMS)
07-01-2016,03:00,0.600,R,ugm-3 (TEOM FDMS),4.600,R,ugm-3 (TEOM FDMS),4.000,R,ugm-3 (TEOM FDMS)
07-01-2016,04:00,-2.600,R,ugm-3 (TEOM FDMS),3.400,R,ugm-3 (TEOM FDMS),6.000,R,ugm-3 (TEOM FDMS)
07-01-2016,05:00,-1.300,R,ugm-3 (TEOM FDMS),0.200,R,ugm-3 (TEOM FDMS),1.500,R,ugm-3 (TEOM FDMS)
07-01-2016,06:00,,,,,,,,,
07-01-2016,07:00,-3.100,R,ugm-3 (TEOM FDMS),-0.500,R,ugm-3 (TEOM FDMS),2.600,R,ugm-3 (TEOM FDMS)
07-01-2016,08:00,,,,,,,,,
07-01-2016,09:00,-3.500,R,ugm-3 (TEOM FDMS),-3.500,R,ugm-3 (TEOM FDMS),0.000,R,ugm-3 (TEOM FDMS)
07-01-2016,10:00,0.500,R,ugm-3 (TEOM FDMS),-0.900,R,ugm-3 (TEOM FDMS),-1.400,R,ugm-3 (TEOM FDMS)
07-01-2016,11:00,1.100,R,ugm-3 (TEOM FDMS),-1.200,R,ugm-3 (TEOM FDMS),-2.300,R,ugm-3 (TEOM FDMS)
07-01-2016,12:00,1.700,R,ugm-3 (TEOM FDMS),-0.700,R,ugm-3 (TEOM FDMS),-2.400,R,ugm-3 (TEOM FDMS)
07-01-2016,13:00,,,,,,,,,
07-01-2016,14:00,2.900,R,ugm-3 (TEOM FDMS),1.000,R,ugm-3 (TEOM FDMS),-1.900,R,ugm-3 (TEOM FDMS)
07-01-2016,15:00,2.300,R,ugm-3 (TEOM FDMS),2.600,R,ugm-3 (TEOM FDMS),0.300,R,ugm-3 (TEOM FDMS)
07-01-2016,16:00,3.400,R,ugm-3 (TEOM FDMS),1.800,R,ugm-3 (TEOM FDMS),-1.600,R,ugm-3 (TEOM FDMS)
07-01-2016,17:00,2.100,R,ugm-3 (TEOM FDMS),1.400,R,ugm-3 (TEOM FDMS),-0.700,R,ugm-3 (TEOM FDMS)
07-01-2016,18:00,3.000,R,ugm-3 (TEOM FDMS),1.200,R,ugm-3 (TEOM FDMS),-1.800,R,ugm-3 (TEOM FDMS)
07-01-2016,19:00,4.800,R,ugm-3 (TEOM FDMS),3.600,R,ugm-3 (TEOM FDMS),-1.200,R,ugm-3 (TEOM FDMS)
07-01-2016,20:00,2.100,R,ugm-3 (TEOM FDMS),2.000,R,ugm-3 (TEOM FDMS),-0.100,R,ugm-3 (TEOM FDMS)
07-01-2016,21:00,2.200,R,ugm-3 (TEOM FDMS),0.600,R,ugm-3 (TEOM FDMS),-1.600,R,ugm-3 (TEOM FDMS)
07-01-2016,22:00,4.000,R,ugm-3 (TEOM FDMS),3.500,R,ugm-3 (TEOM FDMS),-0.500,R,ugm-3 (TEOM FDMS)
07-01-2016,23:00,3.200,R,ugm-3 (TEOM FDMS),3.500,R,ugm-3 (TEOM FDMS),0.300,R,ugm-3 (TEOM FDMS)
07-01-2016,24:00,3.700,R,ugm-3 (TEOM FDMS),3.400,R,ugm-3 (TEOM FDMS),-0.300,R,ugm-3 (TEOM FDMS)
08-01-2016,01:00,0.300,R,ugm-3 (TEOM FDMS),1.000,R,ugm-3 (TEOM FDMS),0.700,R,ugm-3 (TEOM FDMS)
08-01-2016,02:00,2.400,R,ugm-3 (TEOM FDMS),2.900,R,ugm-3 (TEOM FDMS),0.500,R,ugm-3 (TEOM FDMS)
08-01-2016,03:00,0.500,R,ugm-3 (TEOM FDMS),0.300,R,ugm-3 (TEOM FDMS),-0.200,R,ugm-3 (TEOM FDMS)
08-01-2016,04:00,0.400,R,ugm-3 (TEOM FDMS),-0.200,R,ugm-3 (TEOM FDMS),-0.600,R,ugm-3 (TEOM FDMS)
08-01-2016,05:00,1.600,R,ugm-3 (TEOM FDMS),2.200,R,ugm-3 (TEOM FDMS),0.600,R,ugm-3 (TEOM FDMS)
08-01-2016,06:00,-0.300,R,ugm-3 (TEOM FDMS),0.300,R,ugm-3 (TEOM FDMS),0.600,R,ugm-3 (TEOM FDMS)
08-01-2016,07:00,-1.900,R,ugm-3 (TEOM FDMS),-1.000,R,ugm-3 (TEOM FDMS),0.900,R,ugm-3 (TEOM FDMS)
08-01-2016,08:00,-0.700,R,ugm-3 (TEOM FDMS),-0.400,R,ugm-3 (TEOM FDMS),0.300,R,ugm-3 (TEOM FDMS)
08-01-2016,09:00,0.100,R,ugm-3 (TEOM FDMS),0.600,R,ugm-3 (TEOM FDMS),0.500,R,ugm-3 (TEOM FDMS)
08-01-2016,10:00,4.700,R,ugm-3 (TEOM FDMS),2.900,R,ugm-3 (TEOM FDMS),-1.800,R,ugm-3 (TEOM FDMS)
08-01-2016,11:00,3.100,R,ugm-3 (TEOM FDMS),5.400,R,ugm-3 (TEOM FDMS),2.300,R,ugm-3 (TEOM FDMS)
08-01-2016,12:00,3.200,R,ugm-3 (TEOM FDMS),4.000,R,ugm-3 (TEOM FDMS),0.800,R,ugm-3 (TEOM FDMS)
08-01-2016,13:00,3.100,R,ugm-3 (TEOM FDMS),4.200,R,ugm-3 (TEOM FDMS),1.100,R,ugm-3 (TEOM FDMS)
08-01-2016,14:00,2.100,R,ugm-3 (TEOM FDMS),3.500,R,ugm-3 (TEOM FDMS),1.400,R,ugm-3 (TEOM FDMS)
08-01-2016,15:00,1.500,R,ugm-3 (TEOM FDMS),1.500,R,ugm-3 (TEOM FDMS),0.000,R,ugm-3 (TEOM FDMS)
08-01-2016,16:00,3.200,R,ugm-3 (TEOM FDMS),2.400,R,ugm-3 (TEOM FDMS),-0.800,R,ugm-3 (TEOM FDMS)
08-01-2016,17:00,5.100,R,ugm-3 (TEOM FDMS),4.500,R,ugm-3 (TEOM FDMS),-0.600,R,ugm-3 (TEOM FDMS)
08-01-2016,18:00,1.600,R,ugm-3 (TEOM FDMS),0.600,R,ugm-3 (TEOM FDMS),-1.000,R,ugm-3 (TEOM FDMS)
08-01-2016,19:00,2.700,R,ugm-3 (TEOM FDMS),2.200,R,ugm-3 (TEOM FDMS),-0.500,R,ugm-3 (TEOM FDMS)
08-01-2016,20:00,4.000,R,ugm-3 (TEOM FDMS),3.200,R,ugm-3 (TEOM FDMS),-0.800,R,ugm-3 (TEOM FDMS)
08-01-2016,21:00,7.100,R,ugm-3 (TEOM FDMS),8.600,R,ugm-3 (TEOM FDMS),1.500,R,ugm-3 (TEOM FDMS)
08-01-2016,22:00,4.900,R,ugm-3 (TEOM FDMS),7.100,R,ugm-3 (TEOM FDMS),2.200,R,ugm-3 (TEOM FDMS)
08-01-2016,23:00,2.100,R,ugm-3 (TEOM FDMS),2.700,R,ugm-3 (TEOM FDMS),0.600,R,ugm-3 (TEOM FDMS)
08-01-2016,24:00,1.800,R,ugm-3 (TEOM FDMS),3.100,R,ugm-3 (TEOM FDMS),1.300,R,ugm-3 (TEOM FDMS)
09-01-2016,01:00,-1.900,R,ugm-3 (TEOM FDMS),-1.900,R,ugm-3 (TEOM FDMS),0.000,R,ugm-3 (TEOM FDMS)
09-01-2016,02:00,-1.800,R,ugm-3 (TEOM FDMS),-1.800,R,ugm-3 (TEOM FDMS),0.000,R,ugm-3 (TEOM FDMS)
09-01-2016,03:00,-0.700,R,ugm-3 (TEOM FDMS),1.300,R,ugm-3 (TEOM FDMS),2.000,R,ugm-3 (TEOM FDMS)
09-01-2016,04:00,-2.100,R,ugm-3 (TEOM FDMS),-2.100,R,ugm-3 (TEOM FDMS),0.000,R,ugm-3 (TEOM FDMS)
09-01-2016,05:00,-4.000,R,ugm-3 (TEOM FDMS),-2.500,R,ugm-3 (TEOM FDMS),1.500,R,ugm-3 (TEOM FDMS)
09-01-2016,06:00,-0.400,R,ugm-3 (TEOM FDMS),1.600,R,ugm-3 (TEOM FDMS),2.000,R,ugm-3 (TEOM FDMS)
09-01-2016,07:00,1.500,R,ugm-3 (TEOM FDMS),2.900,R,ugm-3 (TEOM FDMS),1.400,R,ugm-3 (TEOM FDMS)
09-01-2016,08:00,1.300,R,ugm-3 (TEOM FDMS),2.400,R,ugm-3 (TEOM FDMS),1.100,R,ugm-3 (TEOM FDMS)
09-01-2016,09:00,0.600,R,ugm-3 (TEOM FDMS),0.100,R,ugm-3 (TEOM FDMS),-0.500,R,ugm-3 (TEOM FDMS)
09-01-2016,10:00,1.300,R,ugm-3 (TEOM FDMS),2.000,R,ugm-3 (TEOM FDMS),0.700,R,ugm-3 (TEOM FDMS)
09-01-2016,11:00,1.300,R,ugm-3 (TEOM FDMS),2.700,R,ugm-3 (TEOM FDMS),1.400,R,ugm-3 (TEOM FDMS)
09-01-2016,12:00,1.500,R,ugm-3 (TEOM FDMS),3.000,R,ugm-3 (TEOM FDMS),1.500,R,ugm-3 (TEOM FDMS)
09-01-2016,13:00,1.300,R,ugm-3 (TEOM FDMS),2.400,R,ugm-3 (TEOM FDMS),1.100,R,ugm-3 (TEOM FDMS)
09-01-2016,14:00,-0.200,R,ugm-3 (TEOM FDMS),0.200,R,ugm-3 (TEOM FDMS),0.400,R,ugm-3 (TEOM FDMS)
09-01-2016,15:00,0.600,R,ugm-3 (TEOM FDMS),2.100,R,ugm-3 (TEOM FDMS),1.500,R,ugm-3 (TEOM FDMS)
09-01-2016,16:00,-0.200,R,ugm-3 (TEOM FDMS),3.800,R,ugm-3 (TEOM FDMS),4.000,R,ugm-3 (TEOM FDMS)
09-01-2016,17:00,-0.900,R,ugm-3 (TEOM FDMS),1.800,R,ugm-3 (TEOM FDMS),2.700,R,ugm-3 (TEOM FDMS)
09-01-2016,18:00,-2.300,R,ugm-3 (TEOM FDMS),-1.200,R,ugm-3 (TEOM FDMS),1.100,R,ugm-3 (TEOM FDMS)
09-01-2016,19:00,-2.000,R,ugm-3 (TEOM FDMS),1.300,R,ugm-3 (TEOM FDMS),3.300,R,ugm-3 (TEOM FDMS)
09-01-2016,20:00,-0.300,R,ugm-3 (TEOM FDMS),1.500,R,ugm-3 (TEOM FDMS),1.800,R,ugm-3 (TEOM FDMS)
09-01-2016,21:00,-1.100,R,ugm-3 (TEOM FDMS),-2.300,R,ugm-3 (TEOM FDMS),-1.200,R,ugm-3 (TEOM FDMS)
09-01-2016,22:00,-1.700,R,ugm-3 (TEOM FDMS),0.500,R,ugm-3 (TEOM FDMS),2.200,R,ugm-3 (TEOM FDMS)
09-01-2016,23:00,-2.700,R,ugm-3 (TEOM FDMS),-3.000,R,ugm-3 (TEOM FDMS),-0.300,R,ugm-3 (TEOM FDMS)
09-01-2016,24:00,0.200,R,ugm-3 (TEOM FDMS),0.900,R,ugm-3 (TEOM FDMS),0.700,R,ugm-3 (TEOM FDMS)
10-01-2016,01:00,0.900,R,ugm-3 (TEOM FDMS),1.400,R,ugm-3 (TEOM FDMS),0.500,R,ugm-3 (TEOM FDMS)
10-01-2016,02:00,-2.200,R,ugm-3 (TEOM FDMS),-1.700,R,ugm-3 (TEOM FDMS),0.500,R,ugm-3 (TEOM FDMS)
10-01-2016,03:00,-0.100,R,ugm-3 (TEOM FDMS),0.600,R,ugm-3 (TEOM FDMS),0.700,R,ugm-3 (TEOM FDMS)
10-01-2016,04:00,-1.000,R,ugm-3 (TEOM FDMS),-0.400,R,ugm-3 (TEOM FDMS),0.600,R,ugm-3 (TEOM FDMS)
10-01-2016,05:00,1.900,R,ugm-3 (TEOM FDMS),1.600,R,ugm-3 (TEOM FDMS),-0.300,R,ugm-3 (TEOM FDMS)
10-01-2016,06:00,2.100,R,ugm-3 (TEOM FDMS),4.200,R,ugm-3 (TEOM FDMS),2.100,R,ugm-3 (TEOM FDMS)
10-01-2016,07:00,1.400,R,ugm-3 (TEOM FDMS),-0.300,R,ugm-3 (TEOM FDMS),-1.700,R,ugm-3 (TEOM FDMS)
10-01-2016,08:00,,,,,,,,,
10-01-2016,09:00,0.000,R,ugm-3 (TEOM FDMS),-1.800,R,ugm-3 (TEOM FDMS),-1.800,R,ugm-3 (TEOM FDMS)
10-01-2016,10:00,0.200,R,ugm-3 (TEOM FDMS),0.500,R,ugm-3 (TEOM FDMS),0.300,R,ugm-3 (TEOM FDMS)
10-01-2016,11:00,1.000,R,ugm-3 (TEOM FDMS),-0.700,R,ugm-3 (TEOM FDMS),-1.700,R,ugm-3 (TEOM FDMS)
10-01-2016,12:00,0.300,R,ugm-3 (TEOM FDMS),0.700,R,ugm-3 (TEOM FDMS),0.400,R,ugm-3 (TEOM FDMS)
10-01-2016,13:00,0.100,R,ugm-3 (TEOM FDMS),0.400,R,ugm-3 (TEOM FDMS),0.300,R,ugm-3 (TEOM FDMS)
10-01-2016,14:00,1.400,R,ugm-3 (TEOM FDMS),4.100,R,ugm-3 (TEOM FDMS),2.700,R,ugm-3 (TEOM FDMS)
10-01-2016,15:00,0.700,R,ugm-3 (TEOM FDMS),0.400,R,ugm-3 (TEOM FDMS),-0.300,R,ugm-3 (TEOM FDMS)
10-01-2016,16:00,0.900,R,ugm-3 (TEOM FDMS),0.700,R,ugm-3 (TEOM FDMS),-0.200,R,ugm-3 (TEOM FDMS)
10-01-2016,17:00,1.700,R,ugm-3 (TEOM FDMS),0.100,R,ugm-3 (TEOM FDMS),-1.600,R,ugm-3 (TEOM FDMS)
10-01-2016,18:00,1.500,R,ugm-3 (TEOM FDMS),0.600,R,ugm-3 (TEOM FDMS),-0.900,R,ugm-3 (TEOM FDMS)
10-01-2016,19:00,3.400,R,ugm-3 (TEOM FDMS),2.000,R,ugm-3 (TEOM FDMS),-1.400,R,ugm-3 (TEOM FDMS)
10-01-2016,20:00,4.400,R,ugm-3 (TEOM FDMS),3.500,R,ugm-3 (TEOM FDMS),-0.900,R,ugm-3 (TEOM FDMS)
10-01-2016,21:00,4.200,R,ugm-3 (TEOM FDMS),4.800,R,ugm-3 (TEOM FDMS),0.600,R,ugm-3 (TEOM FDMS)
10-01-2016,22:00,3.500,R,ugm-3 (TEOM FDMS),4.100,R,ugm-3 (TEOM FDMS),0.600,R,ugm-3 (TEOM FDMS)
10-01-2016,23:00,1.100,R,ugm-3 (TEOM FDMS),2.100,R,ugm-3 (TEOM FDMS),1.000,R,ugm-3 (TEOM FDMS)
10-01-2016,24:00,0.200,R,ugm-3 (TEOM FDMS),0.400,R,ugm-3 (TEOM FDMS),0.200,R,ugm-3 (TEOM FDMS)
11-01-2016,01:00,-3.900,R,ugm-3 (TEOM FDMS),-2.800,R,ugm-3 (TEOM FDMS),1.100,R,ugm-3 (TEOM FDMS)
11-01-2016,02:00,,,,,,,,,
11-01-2016,03:00,-3.200,R,ugm-3 (TEOM FDMS),-1.100,R,ugm-3 (TEOM FDMS),2.100,R,ugm-3 (TEOM FDMS)
11-01-2016,04:00,-0.700,R,ugm-3 (TEOM FDMS),0.000,R,ugm-3 (TEOM FDMS),0.700,R,ugm-3 (TEOM FDMS)
11-01-2016,05:00,-2.400,R,ugm-3 (TEOM FDMS),-1.500,R,ugm-3 (TEOM FDMS),0.900,R,ugm-3 (TEOM FDMS)
11-01-2016,06:00,-2.200,R,ugm-3 (TEOM FDMS),-0.200,R,ugm-3 (TEOM FDMS),2.000,R,ugm-3 (TEOM FDMS)
11-01-2016,07:00,-1.900,R,ugm-3 (TEOM FDMS),-0.200,R,ugm-3 (TEOM FDMS),1.700,R,ugm-3 (TEOM FDMS)
11-01-2016,08:00,-1.600,R,ugm-3 (TEOM FDMS),-0.500,R,ugm-3 (TEOM FDMS),1.100,R,ugm-3 (TEOM FDMS)
11-01-2016,09:00,0.100,R,ugm-3 (TEOM FDMS),-0.100,R,ugm-3 (TEOM FDMS),-0.200,R,ugm-3 (TEOM FDMS)
11-01-2016,10:00,0.400,R,ugm-3 (TEOM FDMS),1.300,R,ugm-3 (TEOM FDMS),0.900,R,ugm-3 (TEOM FDMS)
11-01-2016,11:00,1.800,R,ugm-3 (TEOM FDMS),2.600,R,ugm-3 (TEOM FDMS),0.800,R,ugm-3 (TEOM FDMS)
11-01-2016,12:00,-0.200,R,ugm-3 (TEOM FDMS),-0.700,R,ugm-3 (TEOM FDMS),-0.500,R,ugm-3 (TEOM FDMS)